Regional Weather Roundup
Issued by NWS

Home | Current Version | Previous Version | Graphics & Text | Print | Product List | Glossary On
Versions: 1 2 3 4 5 6 7 8 9 10 11 12 13 14 15 16 17 18 19 20 21 22 23 24 25 26 27 28 29 30 31 32 33 34 35 36 37 38 39 40 41 42 43 44 45 46 47 48 49 50
000
ASUS45 KTFX 051804
RWRMT
MONTANA HOURLY WEATHER ROUNDUP
NATIONAL WEATHER SERVICE GREAT FALLS MT
1104 AM MST THU MAR 5 2015

NOTE: "FAIR" INDICATES FEW OR NO CLOUDS BELOW 12000 FEET WITH NO
SIGNIFICANT WEATHER AND/OR OBSTRUCTIONS TO VISIBILITY.

* THESE STATIONS ARE NOT UNDER NWS QUALITY CONTROL. THEY DO NOT
   REPORT WEATHER SUCH AS PRECIPITATION OR FOG.

MTZ001>007-043-051900-
WEST OF THE DIVIDE
CITY           SKY/WX    TMP DP  RH WIND       PRES   REMARKS
KALISPELL      CLOUDY    30  18  61 CALM      30.31S
MISSOULA       SUNNY     32  14  47 CALM      30.34S
BUTTE          PTSUNNY   36   3  25 N5        30.24S WCI  32
MULLAN PASS    PTCLDY    30   7  38 VRB6      30.22S WCI  24
* ANACONDA     PTCLDY    43   5  21 S10        N/A
* ESSEX        N/A       30  13  49 SE2        N/A
* LINCOLN      N/A       34   5  29 S7G13      N/A   WCI  28
* LOOKOUT PASS N/A       36   8  31 E4         N/A
* POLSON       N/A       33  21  61 SW2        N/A
* RONAN APT    PTSUNNY   37  16  42 N/A        N/A
* SEELEY LAKE  N/A       32  11  41 SE1        N/A
* THOMP F APT  PTSUNNY   28  10  47 SE5        N/A   WCI  22
$$

MTZ008-052>055-051900-
SOUTHWEST MONTANA
CITY           SKY/WX    TMP DP  RH WIND       PRES   REMARKS
BOZEMAN        PTCLDY    36  16  44 CALM      30.25F
DILLON         PTSUNNY   37  10  33 SW22      30.25S WCI  26
* W YELLOWSTON PTCLDY    28   9  45 SW5G14     N/A   WCI  22
* THREE FORKS  PTCLDY    43  16  34 SW8        N/A
* BOULDER HILL N/A       36   5  27 S8         N/A   WCI  30
* MONIDA PASS  N/A       24  11  57 SE17       N/A   WCI  11
* RAYNOLDS PAS N/A       16   1  51 S17G26     N/A
* WHITEHALL    N/A       42  11  28 S13G22     N/A
* WISE RIVER   N/A       32   6  33 W4         N/A
$$

MTZ009>010-012-014-046-048-049-054-051900-
EAST SLOPES AND CENTRAL MONTANA
CITY           SKY/WX    TMP DP  RH WIND       PRES   REMARKS
CUT BANK       CLOUDY    43  14  31 W30       30.07S
GREAT FALLS    PTCLDY    46  10  23 W20G25    30.11S
HELENA         CLOUDY    43   3  19 NW14      30.21S
* DEARBORN     N/A       43   7  22 S9G15      N/A
* EAST GLACIER N/A       32  10  40 W31G43     N/A   WCI  17
* MONARCH      N/A       34   6  31 SW9        N/A   WCI  27
* PENDROY      N/A       41  18  39 NW7        N/A
* ROGERS PASS  N/A       30   2  30 SE18G29    N/A   WCI  18
* SWEET GRASS  N/A       40  16  38 W13G20     N/A   WCI  32
$$

MTZ011-013-016-021-035-040-045-047-050-051-051900-
NORTH CENTRAL MONTANA
CITY           SKY/WX    TMP DP  RH WIND       PRES   REMARKS
HAVRE          SUNNY     43  16  34 SW21      30.09F
LEWISTOWN      SUNNY     37  19  48 W15       30.12S WCI  28
* N BAR RANCH  SUNNY     39  12  33 W18G24    30.10S WCI  30
* CHESTER      N/A       39  14  36 SW3        N/A
* DENTON       N/A       42  15  33 W20G28     N/A
* GEYSER       N/A       41  14  33 SW14G20    N/A
* JUDITH GAP   N/A       38  12  34 NE4        N/A
* LOMA         N/A       45  14  28 S9G17      N/A
$$

MTZ017>020-022>027-061-062-051900-
NORTHEAST MONTANA
CITY           SKY/WX    TMP DP  RH WIND       PRES   REMARKS
GLASGOW        SUNNY     32  10  40 W5        30.08F WCI  27
GLENDIVE       SUNNY     37  14  39 NW21G26   30.07S WCI  26
JORDAN         SUNNY     41  14  33 W14       30.09F
SIDNEY         SUNNY     32   9  38 W12       30.10S WCI  23
WOLF POINT     SUNNY     36  12  37 SW14      30.08S WCI  27
* BEAVER HILL  N/A       33  12  42 W14G23     N/A   WCI  23
* CIRCLE       N/A       35  17  48 W9G16      N/A   WCI  28
* LINDSAY DVD  N/A       34  12  40 W24G32     N/A   WCI  22
* NAVAJO       N/A       28   9  45 W14        N/A   WCI  17
* SACO         N/A       35  15  44 S4         N/A
$$

MTZ028>042-056>058-051900-
SOUTHCENTRAL AND SOUTHEAST MONTANA
CITY           SKY/WX    TMP DP  RH WIND       PRES   REMARKS
BAKER          SUNNY     37  12  36 W22G30    30.05F WCI  26
BILLINGS       SUNNY     36  10  34 SW18      30.16S WCI  26
LIVINGSTON     PTCLDY    39  12  33 SW26G36   30.18F WCI  28
MILES CITY     SUNNY     39  14  36 N/A       30.11R
* LAUREL APT   SUNNY     36   9  32 S6         N/A   WCI  31
* ROUNDUP APT  SUNNY     45   7  21 W7         N/A
* ALZADA       N/A       36  15  42 SW14       N/A   WCI  27
* HYSHAM       N/A       38  10  31 W11G17     N/A   WCI  31
* REED POINT   N/A       47  16  29 W26G34     N/A
* ROSCOE HILL  N/A       30   5  34 SE11       N/A   WCI  21
$$

REGIONAL REPORTS...DAKOTAS
CITY           SKY/WX    TMP DP  RH WIND       PRES   REMARKS
WILLISTON      SUNNY     27   9  46 W12       30.06S WCI  16
DICKINSON      SUNNY     34   9  35 W14       30.02S WCI  24
BEACH          SUNNY     34  10  37 NW18G23   30.06R WCI  23
CROSBY         SUNNY     21   7  55 SW12      30.04S WCI   9
WATFORD CITY   SUNNY     27   9  46 W13       30.04R WCI  16
BISMARCK       SUNNY     27   3  35 S14       30.13F WCI  16
GRAND FORKS    SUNNY     14   3  61 S18       30.26F WCI  -3
FARGO          SUNNY     16   0  49 S17       30.33F
BUFFALO SD     PTCLDY    37  10  33 W25G35    30.00S WCI  25
RAPID CITY     SUNNY     36  19  50 E5        30.12S WCI  32
$$

REGIONAL REPORTS...WYOMING/IDAHO/WASHINGTON
CITY           SKY/WX    TMP DP  RH WIND       PRES   REMARKS
GILLETTE       PTCLDY    36  12  37 W15G24    30.14R WCI  27
SHERIDAN       PTCLDY    36  18  48 CALM      30.16R
CODY           SUNNY     41  12  30 W20G29    30.15S
YELLOWSTONE LA PTCLDY    12   1  61 E5        30.32S WCI   4
SALMON         SUNNY     30  12  47 CALM      30.38F
MULLAN PASS    PTCLDY    30   7  38 VRB6      30.22S WCI  24
SAND POINT     PTCLDY    36  21  54 CALM      30.35S
SPOKANE        PTSUNNY   37  19  48 NE5       30.32R WCI  33

$$




USA.gov is the U.S. government's official web portal to all federal, state and local government web resources and services.